Location: Wien
(48.2082°N, 16.3738°E)
Time: 21:17:15
(UTC+02:00)

JY1SAT - Pass Details

Date: 18 May 2025
Orbit: 497 x 509 km, 97.5° (Epoch: 12 June)

Event Time Altitude Azimuth Distance (km) Brightness Sun altitude
Exits shadow 23:01:03 - 226° (SW) 2,115 ? -17.7°
Reaches altitude 10° 23:02:39 10° 244° (WSW) 1,735 ? -17.8°
Maximum altitude 23:04:19 13° 271° (W) 1,583 ? -18.0°
Drops below altitude 10° 23:05:58 10° 297° (WNW) 1,741 ? -18.1°
Sets 23:09:11 0° 328° (NNW) 2,633 ? -18.3°
